Terug naar catalogus

STARLINK-36597

ActiefCommunicatieSSO
NORAD 67613·PAYLOAD·🇺🇸 United States

Gelanceerd Jan 29, 2026 vanaf Vandenberg Space Force Base

Loading…

Volgende Passages (komende 24 uur)

TLE

VersSource: CelesTrak SupGP

Epoch: Sep 15, 2026, 02:42 UTC

1 67613C 26018AA  26258.11298611  .00007745  00000+0  24038-3 0  2582
2 67613  97.2855 321.5972 0000717  84.9796 194.5258 15.33440035    11

Volg STARLINK-36597 in realtime met AllMySat

Download on the App Store